{"data":{"norad_id":37393,"intl_designator":"2011-016B","name":"YAHSAT 1A","alt_names":[],"object_type":"PAYLOAD","status":"ACTIVE","operator":null,"country":"UAE","launch_date":"2011-04-22","launch_site_code":"FRGUI","launch_vehicle":null,"mission":null,"orbit_class":"UNKNOWN","rcs_meters":31.6228,"size_class":null,"mass_kg":null,"dimensions":null,"purposes":["comms"],"wikipedia_slug":null,"has_3d_model":false,"image_url":null,"decayed_at":null,"tle_current":{"epoch":"2026-05-25T03:59:38.323392Z","epoch_age_seconds":57771,"freshness":"FRESH","line1":"1 37393U 11016B   26145.16641578  .00000000  00000+0  00000+0 0  9998","line2":"2 37393   0.0123 319.4932 0003228 112.6785 282.9911  1.00270319 42178","mean_motion":1.00270319,"eccentricity":0.0003228,"inclination_deg":0.0123,"raan_deg":319.4932,"arg_perigee_deg":112.6785,"mean_anomaly_deg":282.9911,"bstar":0,"rev_number":4217,"period_min":1436.1179004527,"perigee_km":35773.395031074,"apogee_km":35800.616847356,"semimajor_km":42165.142939215,"source":"CELESTRAK","updated_at":"2026-05-25T13:38:13.899769Z"}}}